This is the latest recevied weather packets stored in our database for station/object N4NVD-13. If no packets are shown the sender has not sent any weather packets the latest 10 day(s).
| Time | Temp. | Humidity | Pressure | Rain* | Wind** | Luminosity | Snow |
|---|---|---|---|---|---|---|---|
| 1777587767 | 19.44° C | 98% | 1009.1 hPa | 0 mm | - | 55 W/m² | - |
| 1777587465 | 19.44° C | 98% | 1009.2 hPa | 0 mm | - | 56 W/m² | - |
| 1777587163 | 19.44° C | 98% | 1009.3 hPa | 0 mm | - | 56 W/m² | - |
| 1777586858 | 19.44° C | 98% | 1009.2 hPa | 0 mm | - | 66 W/m² | - |
| 1777586554 | 20° C | 98% | 1009.1 hPa | 0 mm | - | 113 W/m² | - |
| 1777586250 | 20° C | 98% | 1009 hPa | 0 mm | - | 76 W/m² | - |
| 1777585947 | 19.44° C | 98% | 1009.1 hPa | 0 mm | - | 87 W/m² | - |
| 1777585642 | 20° C | 98% | 1009.4 hPa | 0 mm | - | 135 W/m² | - |
| 1777585338 | 20° C | 99% | 1009.5 hPa | 0 mm | - | 82 W/m² | - |
| 1777585033 | 20° C | 99% | 1009.5 hPa | 0 mm | - | 98 W/m² | - |
| 1777584729 | 20° C | 99% | 1009.9 hPa | 0 mm | - | 202 W/m² | - |
| 1777584427 | 20° C | 99% | 1010.1 hPa | 0 mm | - | 86 W/m² | - |
| 1777584123 | 20° C | 99% | 1010 hPa | 0 mm | - | 198 W/m² | - |
| 1777583822 | 20° C | 99% | 1010 hPa | 0 mm | - | 126 W/m² | - |
| 1777583518 | 19.44° C | 99% | 1009.9 hPa | 0 mm | - | 220 W/m² | - |
| 1777583212 | 19.44° C | 99% | 1010 hPa | 0 mm | - | 126 W/m² | - |
| 1777582907 | 19.44° C | 99% | 1009.9 hPa | 0 mm | - | 124 W/m² | - |
| 1777582605 | 18.89° C | 99% | 1009.9 hPa | 0 mm | - | 179 W/m² | - |
| 1777582299 | 19.44° C | 99% | 1010 hPa | 0 mm | - | 182 W/m² | - |
| 1777581997 | 19.44° C | 99% | 1009.8 hPa | 0 mm | - | 242 W/m² | - |
| 1777581692 | 19.44° C | 99% | 1009.5 hPa | 0 mm | - | 259 W/m² | - |
| 1777581387 | 19.44° C | 99% | 1009.4 hPa | 0 mm | - | 218 W/m² | - |
| 1777581087 | 18.89° C | 99% | 1008.4 hPa | 0 mm | - | 261 W/m² | - |
| 1777580786 | 18.89° C | 99% | 1007.8 hPa | 0 mm | - | 202 W/m² | - |
| 1777580483 | 18.89° C | 99% | 1009.1 hPa | 0 mm | - | 76 W/m² | - |
* Rain latest hour (hover to see other rain measurements)
** Current wind speed in m/s (hover to see current wind gust speed)